St. Charles, IL

5:07 PM CDT on August 23, 2017 (GMT -0500)
Saint Charles County Smartt

Weather History for KSET - July, 2013

Change the Weather History Date:

Monday, July 8, 2013

  Actual Average (KSTL) Record (KSTL)
Temperature  
Mean Temperature 82 °F -  
Max Temperature 93 °F 91 °F 101 °F (1980)
Min Temperature 72 °F 72 °F 56 °F (1891)
Cooling Degree Days 18    
Growing Degree Days 32 (Base 50)    
Moisture  
Dew Point 70 °F    
Average Humidity 68    
Maximum Humidity 91    
Minimum Humidity 47    
Precipitation  
Precipitation 0.00 in - - ()
Sea Level Pressure  
Sea Level Pressure 30.03 in    
Wind  
Wind Speed 3 mph (SSW)    
Max Wind Speed 9 mph    
Max Gust Speed 17 mph    
Visibility 10 miles    
Events      
Averages and records for this station are not official NWS values.
T = Trace of Precipitation, MM = Missing Value Source: NWS Daily Summary

Daily Weather History Graph

Daily Weather History Graph

Search for Another Location

Airport or City:

Trip Planner

Search our weather history database for the weather conditions in past years. The results will help you decide how hot, cold, wet, or windy it might be!

Date:

Astronomy

Jul. 08, 2013 Rise Set
Actual Time 5:44 AM CDT 8:29 PM CDT
Civil Twilight 5:12 AM CDT 9:00 PM CDT
Nautical Twilight 4:32 AM CDT 9:40 PM CDT
Astronomical Twilight 3:47 AM CDT 10:25 PM CDT
Moon 6:12 AM CDT (7/8) 8:32 PM CDT (7/8)
Length of Visible Light 15h 48m
Length of Day
14h 45m
New Moon, 0% of the Moon is Illuminated
Jul 8
New Moon
Jul 15
First Quarter
Jul 22
Full
Jul 29
Last Quarter
Aug 6
New

Hourly Weather History & Observations

Time (CDT) Temp. Heat Index Dew Point Humidity Pressure Visibility Wind Dir Wind Speed Gust Speed Precip Events Conditions
12:54 AM 78.1 °F - 68.0 °F 71% 30.03 in 10.0 mi Calm Calm - N/A   Clear
1:54 AM 77.0 °F - 69.1 °F 76% 30.02 in 10.0 mi Calm Calm - N/A   Clear
2:54 AM 73.9 °F - 68.0 °F 82% 30.01 in 10.0 mi SSE 4.6 mph - N/A   Clear
3:54 AM 73.9 °F - 68.0 °F 82% 30.01 in 10.0 mi Calm Calm - N/A   Clear
4:54 AM 72.0 °F - 69.1 °F 91% 30.02 in 10.0 mi Calm Calm - N/A   Clear
5:54 AM 72.0 °F - 68.0 °F 87% 30.03 in 10.0 mi SE 3.5 mph - N/A   Clear
6:54 AM 75.0 °F - 69.1 °F 82% 30.04 in 10.0 mi Calm Calm - N/A   Clear
7:54 AM 75.9 °F - 69.1 °F 79% 30.05 in 10.0 mi SSW 3.5 mph - N/A   Clear
8:54 AM 78.1 °F - 69.1 °F 74% 30.08 in 10.0 mi Calm Calm - N/A   Overcast
9:54 AM 82.0 °F 86.3 °F 71.1 °F 69% 30.07 in 10.0 mi SSW 6.9 mph - N/A   Clear
10:40 AM 84.2 °F 89.6 °F 71.6 °F 66% 30.09 in 2.5 mi SSW 5.8 mph - N/A   Haze
10:54 AM 86.0 °F 90.7 °F 70.0 °F 59% 30.08 in 10.0 mi WSW 6.9 mph - N/A   Clear
11:54 AM 87.1 °F 94.5 °F 73.0 °F 63% 30.06 in 7.0 mi SSE 6.9 mph - N/A   Clear
12:54 PM 90.0 °F 95.4 °F 70.0 °F 52% 30.05 in 10.0 mi SSW 9.2 mph - N/A   Clear
1:54 PM 91.9 °F 98.4 °F 71.1 °F 50% 30.04 in 10.0 mi SSW 9.2 mph 17.3 mph N/A   Clear
2:54 PM 93.0 °F 99.0 °F 70.0 °F 47% 30.02 in 10.0 mi SSW 8.1 mph - N/A   Clear
3:54 PM 93.0 °F 99.0 °F 70.0 °F 47% 30.01 in 10.0 mi SW 9.2 mph - N/A   Clear
4:54 PM 91.0 °F 97.6 °F 71.1 °F 52% 30.01 in 10.0 mi SW 8.1 mph - N/A   Clear
5:54 PM 91.0 °F 95.6 °F 69.1 °F 48% 30.00 in 10.0 mi SW 9.2 mph - N/A   Clear
6:54 PM 88.0 °F 94.7 °F 72.0 °F 59% 29.99 in 10.0 mi SSW 5.8 mph - N/A   Clear
7:54 PM 87.1 °F 93.6 °F 72.0 °F 61% 29.99 in 10.0 mi SSW 5.8 mph - N/A   Clear
8:54 PM 84.0 °F 89.6 °F 72.0 °F 67% 29.99 in 10.0 mi South 5.8 mph - N/A   Clear
9:54 PM 82.0 °F 87.4 °F 73.0 °F 74% 30.00 in 10.0 mi South 3.5 mph - N/A   Clear
10:54 PM 81.0 °F 85.8 °F 73.0 °F 77% 30.01 in 10.0 mi SSW 4.6 mph - N/A   Clear
11:54 PM 80.1 °F 84.2 °F 73.0 °F 79% 30.01 in 10.0 mi SSW 5.8 mph - N/A   Clear